map of BOG home
Great Circle Mapper logo
BOG - Airport
Location
City:  Bogotá, Colombia
Name:El Nuevo Dorado International Airport
ICAO / IATA:SKBO / BOG

Details
Type:Airport (Aerodrome, Airfield)
Use:International (customs port of entry)
Latitude:4°42'11"N (4.703056)
Longitude:74°08'18"W (-74.138332)
Elevation:8361 ft (2548 m)
Runways:2
Longest:12467 × 148 ft (3800 × 45 m), paved

Time
Time Zone:UTC-5
Local Time:

Weather
METAR:SKBO 230100Z 05005KT 8000 -DZ SCT015 SCT070 13/10 A3039
TAF:SKBO 222200Z 230024 VRB02KT 9999 SCT017 BKN080
TEMPO 2200/2202 VCSH
TEMPO 2301/2305 9000 DZ SCT017TCU
TEMPO 2308/2314 7000 MIFG DZ SCT015
TEMPO 2319/2323 12007KT PROB30
TEMPO 2318/2322 VCSH SCT017TCU TX19/2318Z TN09/2311Z

Related Locations
Nearby:
Farthest:TKG: 12379 mi / 19923 km
Bandar Lampung [Branti (Radin Inten Li)], ID

Find:

   beyond  
but within

Other Information
Maps:
NOTAMs:
Links:
Sources:

  
flag of Colombia   

Airport Diagram

Airport diagram for BOG

Airport diagram (OBSOLETE) from NGA

Sectional Chart

Flight Planning
at skyvector.com

Satellite Image

Google Maps Satellite View

 

Copyright © 2004-2014 Karl L. Swartz. All rights reserved.
The Great Circle Mapper name and logo are trademarks of the Great Circle Mapper.
All other trademarks mentioned herein belong to their respective owners.
Please see credits for attibutions and further copyright information.

  Follow gcmap on Facebook Follow gcmap on Twitter

hCard Microformat

Geo Microformat